Regional Weather Roundup
Issued by NWS

Home | Current Version | Previous Version | Graphics & Text | Print | Product List | Glossary On
Versions: 1 2 3 4 5 6 7 8 9 10 11 12 13 14 15 16 17 18 19 20 21 22 23 24 25 26 27 28 29 30 31 32 33 34 35 36 37 38 39 40 41 42 43 44 45 46 47 48 49 50
000
ASUS45 KTFX 281604
RWRMT
MONTANA HOURLY WEATHER ROUNDUP
NATIONAL WEATHER SERVICE GREAT FALLS MT
1004 AM MDT MON JUL 28 2014

NOTE: "FAIR" INDICATES FEW OR NO CLOUDS BELOW 12000 FEET WITH NO
SIGNIFICANT WEATHER AND/OR OBSTRUCTIONS TO VISIBILITY.

* THESE STATIONS ARE NOT UNDER NWS QUALITY CONTROL. THEY DO NOT
   REPORT WEATHER SUCH AS PRECIPITATION OR FOG.

MTZ001>007-043-281700-
WEST OF THE DIVIDE
CITY           SKY/WX    TMP DP  RH WIND       PRES   REMARKS
KALISPELL      PTSUNNY   66  46  49 N12       30.21F
MISSOULA       CLOUDY    66  45  47 CALM      30.24S
BUTTE          CLOUDY    64  39  40 NW7       30.35S
MULLAN PASS    PTSUNNY   72  41  33 VRB3      30.37S
* ESSEX        N/A       59  43  56 S7         N/A
* LINCOLN      N/A       56  44  64 E2G7       N/A
* LOOKOUT PASS N/A       73  50  44 S1         N/A
* POLSON       N/A       67  55  66 S2         N/A
* RONAN APT    CLOUDY    70  54  57 N6         N/A
* SEELEY LAKE  N/A       59  45  60 NW2G7      N/A
* THOMP F APT  PTCLDY    73  44  35 N/A        N/A
* YAAK HILL    N/A       68  49  51 NE1G8      N/A
$$

MTZ008-052>055-281700-
SOUTHWEST MONTANA
CITY           SKY/WX    TMP DP  RH WIND       PRES   REMARKS
BOZEMAN        PTSUNNY   70  46  42 E5        30.30R
DILLON         PTSUNNY   66  43  43 CALM      30.31F
W YELLOWSTONE  PTSUNNY   63  39  41 CALM      30.43S
* THREE FORKS  CLOUDY    68  55  63 N/A        N/A
* BOULDER HILL N/A       65  38  37 N6         N/A
* RAYNOLDS PAS N/A       68  11  11 N5         N/A
* WHITEHALL    N/A       64  50  61 SW4G9      N/A
* WISE RIVER   N/A       52  40  64 NW3        N/A
$$

MTZ009>010-012-014-046-048-049-054-281700-
EAST SLOPES AND CENTRAL MONTANA
CITY           SKY/WX    TMP DP  RH WIND       PRES   REMARKS
CUT BANK       PTCLDY    72  45  38 VRB3      30.28S
GREAT FALLS    PTCLDY    73  43  34 S5        30.25F
HELENA         PTSUNNY   72  39  30 CALM      30.28F
* CONRAD       SUNNY     68  52  57 N/A        N/A
* DEARBORN     N/A       72  42  34 SW7G12     N/A
* EAST GLACIER N/A       68  44  42 W2         N/A
* ROGERS PASS  N/A       69  40  35 SE2        N/A
* SAINT MARY   N/A       58  48  70 W4         N/A
* SWEET GRASS  N/A       73  44  35 SE19G24    N/A
$$

MTZ011-013-016-021-035-040-045-047-050-051-281700-
NORTH CENTRAL MONTANA
CITY           SKY/WX    TMP DP  RH WIND       PRES   REMARKS
HAVRE          PTCLDY    79  48  34 E9        30.23F
LEWISTOWN      PTCLDY    79  45  30 E13       30.29F
* CHESTER      N/A       75  42  31 SE9G19     N/A
* DENTON       N/A       79  47  32 E8G14      N/A
* JUDITH GAP   N/A       71  47  43 S7G12      N/A
* LOMA         N/A       76  45  33 E16        N/A
$$

MTZ017>020-022>027-061-062-281700-
NORTHEAST MONTANA
CITY           SKY/WX    TMP DP  RH WIND       PRES   REMARKS
GLASGOW        SUNNY     73  52  48 VRB5      30.27F
GLENDIVE       SUNNY     70  54  57 CALM      30.32S
JORDAN         SUNNY     79  50  36 E5        30.27F
SIDNEY         SUNNY     70  55  59 CALM      30.32F
WOLF POINT     SUNNY     72  54  53 E5        30.29F
* BEAVER HILL  N/A       70  54  57 E6         N/A
* CIRCLE       N/A       74  57  55 N/A        N/A
* LINDSAY DVD  N/A       70  56  61 SE8        N/A
* NAVAJO       N/A       68  57  68 SE4        N/A
$$

MTZ028>042-056>058-281700-
SOUTHCENTRAL AND SOUTHEAST MONTANA
CITY           SKY/WX    TMP DP  RH WIND       PRES   REMARKS
BAKER          SUNNY     73  54  51 SE9       30.32F
BILLINGS       SUNNY     72  45  38 CALM      30.28F
LIVINGSTON     PTCLDY    72  39  30 E3        30.32F
MILES CITY     SUNNY     73  54  51 E6        30.28F
* LAUREL APT   SUNNY     70  46  42 N/A        N/A
* ROUNDUP APT  SUNNY     73  43  34 N/A        N/A
* ALZADA       N/A       70  54  57 E4         N/A
* HYSHAM       N/A       77  50  39 E9         N/A
* LAME DEER    N/A       69  50  51 SE8        N/A
* REED POINT   N/A       73  45  37 SE1        N/A
* ROSCOE HILL  N/A       69  41  36 N4         N/A
$$

REGIONAL REPORTS...DAKOTAS
CITY           SKY/WX    TMP DP  RH WIND       PRES   REMARKS
WILLISTON      SUNNY     72  54  53 SW5       30.31F
DICKINSON      SUNNY     70  54  57 VRB6      30.33S
CROSBY         SUNNY     68  61  78 S3        30.32F
TIOGA          SUNNY     66  59  78 SW3       30.36F
WATFORD CITY   SUNNY     72  54  53 CALM      30.30F
BISMARCK       SUNNY     68  52  57 E5        30.34S
GRAND FORKS    PTCLDY    70  57  64 N6        30.28S
FARGO          CLOUDY    68  57  68 N9        30.27F
BUFFALO SD     SUNNY     72  55  55 N/A       30.27F
RAPID CITY     SUNNY     70  55  59 SE10      30.34F
$$

REGIONAL REPORTS...WYOMING/IDAHO/WASHINGTON
CITY           SKY/WX    TMP DP  RH WIND       PRES   REMARKS
GILLETTE       SUNNY     73  50  44 S13       30.34F
SHERIDAN       SUNNY     73  50  44 CALM      30.31S
YELLOWSTONE LA PTSUNNY   63  36  37 CALM      30.53S
SALMON         PTSUNNY   63  43  48 CALM      30.23F
MULLAN PASS    PTSUNNY   72  41  33 VRB3      30.37S
SAND POINT     PTSUNNY   70  50  49 NE5       30.16S
SPOKANE        SUNNY     79  45  30 N9        30.11F

$$




USA.gov is the U.S. government's official web portal to all federal, state and local government web resources and services.